Weather History for Mount Ida, AR

Change the Weather History Date:

Friday, July 26, 2013

  Actual Average (KHOT) Record (KHOT)
Temperature  
Mean Temperature 70 °F -  
Max Temperature 72 °F 94 °F 106 °F (1986)
Min Temperature 68 °F 70 °F 60 °F (2000)
Cooling Degree Days 4    
Growing Degree Days 20 (Base 50)    
Moisture  
Dew Point 67 °F    
Average Humidity 94    
Maximum Humidity 100    
Minimum Humidity 76    
Precipitation  
Precipitation 2.63 in - - ()
Sea Level Pressure  
Sea Level Pressure 29.99 in    
Wind  
Wind Speed 1 mph (ESE)    
Max Wind Speed 12 mph    
Max Gust Speed 16 mph    
Visibility 5 miles    
Events Fog , Rain    
Averages and records for this station are not official NWS values.
T = Trace of Precipitation, MM = Missing Value Source: NWS Daily Summary

Daily Weather History Graph

Daily Weather History Graph

Search for Another Location

Airport:

Trip Planner

Search our weather history database for the weather conditions in past years. The results will help you decide how hot, cold, wet, or windy it might be!

Date:

Astronomy

Jul. 26, 2013 Rise Set
Actual Time 6:20 AM CDT 8:20 PM CDT
Civil Twilight 5:52 AM CDT 8:48 PM CDT
Nautical Twilight 5:18 AM CDT 9:22 PM CDT
Astronomical Twilight 4:41 AM CDT 9:59 PM CDT
Moon 10:50 PM CDT (7/26) 10:43 AM CDT (7/26)
Length of Visible Light 14h 56m
Length of Day
14h 00m
Waning Gibbous, 80% of the Moon is Illuminated
Jul 26
Waning Gibbous
Jul 29
Last Quarter
Aug 6
New
Aug 14
First Quarter
Aug 20
Full

Hourly Weather History & Observations

Time (CDT) Temp. Dew Point Humidity Pressure Visibility Wind Dir Wind Speed Gust Speed Precip Events Conditions
12:53 AM 70.0 °F 69.1 °F 97% 30.03 in 3.0 mi Calm Calm - N/A   Clear
1:07 AM 69.8 °F 69.8 °F 100% 30.05 in 2.5 mi Calm Calm - N/A   Clear
1:16 AM 69.8 °F 69.8 °F 100% 30.05 in 4.0 mi Calm Calm - N/A   Clear
1:53 AM 70.0 °F 69.1 °F 97% 30.02 in 4.0 mi Calm Calm - N/A   Clear
2:53 AM 70.0 °F 68.0 °F 93% 30.01 in 6.0 mi Calm Calm - N/A   Clear
3:53 AM 69.1 °F 66.9 °F 93% 30.01 in 7.0 mi Calm Calm - N/A   Clear
4:53 AM 70.0 °F 66.9 °F 90% 30.00 in 10.0 mi Calm Calm - N/A   Partly Cloudy
5:53 AM 70.0 °F 64.9 °F 84% 30.01 in 10.0 mi Calm Calm - N/A   Clear
6:53 AM 70.0 °F 62.1 °F 76% 30.01 in 10.0 mi SE 3.5 mph - N/A   Partly Cloudy
7:53 AM 71.1 °F 64.0 °F 78% 30.02 in 10.0 mi Calm Calm - N/A   Scattered Clouds
8:53 AM 71.1 °F 64.0 °F 78% 30.03 in 10.0 mi Calm Calm - N/A   Scattered Clouds
9:53 AM 70.0 °F 64.9 °F 84% 30.04 in 10.0 mi Calm Calm - N/A   Scattered Clouds
10:53 AM 68.0 °F 66.0 °F 93% 30.06 in 4.0 mi Calm Calm - 0.05 in Rain Light Rain
11:53 AM 69.1 °F 64.9 °F 87% 30.04 in 10.0 mi Variable 3.5 mph - 0.01 in Rain Light Rain
12:53 PM 69.1 °F 66.9 °F 93% 30.03 in 9.0 mi Calm Calm - 0.05 in Rain Light Rain
1:53 PM 70.0 °F 69.1 °F 97% 30.01 in 5.0 mi Variable 3.5 mph - 0.01 in Rain Light Rain
2:53 PM 71.1 °F 68.0 °F 90% 29.98 in 8.0 mi Calm Calm - 0.01 in Rain Light Rain
3:53 PM 70.0 °F 68.0 °F 93% 29.98 in 1.5 mi Calm Calm - 0.07 in Rain Rain
4:02 PM 69.8 °F 69.8 °F 100% 30.00 in 1.2 mi Calm Calm - 0.05 in Rain Rain
4:08 PM 69.8 °F 69.8 °F 100% 29.99 in 2.0 mi Calm Calm - 0.06 in Rain Rain
4:21 PM 69.8 °F 68.0 °F 94% 29.99 in 1.5 mi Calm Calm - 0.11 in Rain Rain
4:37 PM 69.8 °F 68.0 °F 94% 29.99 in 1.8 mi Calm Calm - 0.18 in Rain Heavy Rain
4:41 PM 69.8 °F 68.0 °F 94% 29.98 in 2.0 mi SE 5.8 mph - 0.19 in Rain Rain
4:46 PM 69.8 °F 68.0 °F 94% 29.98 in 1.8 mi SE 5.8 mph - 0.20 in Rain Rain
4:53 PM 69.1 °F 68.0 °F 96% 29.95 in 1.5 mi SE 5.8 mph - 0.25 in Rain Heavy Rain
5:23 PM 68.0 °F 68.0 °F 100% 29.99 in 0.5 mi Calm Calm - 0.27 in Fog , Rain Heavy Rain
5:31 PM 68.0 °F 68.0 °F 100% 29.98 in 0.2 mi SE 5.8 mph - 0.52 in Fog , Rain Heavy Rain
5:38 PM 68.0 °F 68.0 °F 100% 29.98 in 0.5 mi Calm Calm - 0.77 in Fog , Rain Heavy Rain
5:53 PM 68.0 °F 66.9 °F 96% 29.96 in 0.5 mi East 4.6 mph - 1.16 in Fog , Rain Heavy Rain
5:59 PM 68.0 °F 66.2 °F 94% 29.98 in 0.2 mi ESE 3.5 mph - 0.24 in Fog , Rain Heavy Rain
6:04 PM 68.0 °F 66.2 °F 94% 29.98 in 0.5 mi ESE 4.6 mph - 0.43 in Fog , Rain Heavy Rain
6:23 PM 68.0 °F 66.2 °F 94% 29.97 in 2.0 mi Calm Calm - 0.68 in Rain Rain
6:35 PM 68.0 °F 68.0 °F 100% 29.97 in 3.0 mi Calm Calm - 0.72 in Rain Rain
6:53 PM 68.0 °F 66.9 °F 96% 29.95 in 6.0 mi Calm Calm - 0.74 in Rain Light Rain
7:33 PM 68.0 °F 68.0 °F 100% 29.97 in 3.0 mi Calm Calm - 0.09 in Rain Rain
7:41 PM 68.0 °F 68.0 °F 100% 29.97 in 4.0 mi Calm Calm - 0.12 in Rain Rain
7:53 PM 68.0 °F 68.0 °F 100% 29.94 in 3.0 mi Variable 4.6 mph - 0.16 in Rain Heavy Rain
8:04 PM 68.0 °F 68.0 °F 100% 29.97 in 2.5 mi Calm Calm - 0.04 in Rain Rain
8:12 PM 68.0 °F 68.0 °F 100% 29.96 in 4.0 mi SE 5.8 mph - 0.06 in Rain Rain
8:33 PM 68.0 °F 66.2 °F 94% 29.90 in 7.0 mi SE 11.5 mph 16.1 mph 0.08 in Rain Light Rain
8:40 PM 68.0 °F 66.2 °F 94% 29.91 in 10.0 mi SE 4.6 mph 16.1 mph 0.08 in Rain Light Rain
8:53 PM 68.0 °F 66.9 °F 96% 29.90 in 10.0 mi NE 5.8 mph - 0.08 in   Overcast
9:33 PM 68.0 °F 66.2 °F 94% 29.97 in 10.0 mi Calm Calm - N/A   Overcast
9:53 PM 68.0 °F 66.9 °F 96% 29.96 in 9.0 mi Calm Calm - N/A   Overcast
10:53 PM 68.0 °F 66.9 °F 96% 29.97 in 5.0 mi Calm Calm - N/A   Overcast
11:53 PM 68.0 °F 66.9 °F 96% 29.97 in 4.0 mi Calm Calm - 0.04 in Rain Light Rain